Amarillo, TX

9:57 PM CDT on September 27, 2016 (GMT -0500)
Amarillo International

Weather History for KAMA - November, 2011

Change the Weather History Date:

Tuesday, November 8, 2011

  Actual Average Record
Temperature  
Mean Temperature 42 °F 50 °F  
Max Temperature 49 °F 64 °F 87 °F (1980)
Min Temperature 34 °F 36 °F 15 °F (1955)
Degree Days  
Heating Degree Days 23 15  
Month to date heating degree days 126 111  
Since 1 July heating degree days 352 391  
Cooling Degree Days 0 0  
Month to date cooling degree days 0 0  
Year to date cooling degree days 2220 1398  
Moisture  
Dew Point 41 °F    
Average Humidity 87    
Maximum Humidity 100    
Minimum Humidity 73    
Precipitation  
Precipitation 0.02 in 0.04 in 1.84 in (1905)
Month to date precipitation 0.10 0.28  
Year to date precipitation 4.94 19.13  
Snow  
Snow 0.00 in 0.00 in 3.50 in (1929)
Month to date snowfall 0.0 0.4  
Since 1 July snowfall 3.1 0.6  
Since 1 September snowfall 3.1 0.6  
Snow Depth 0.00 in    
Sea Level Pressure  
Sea Level Pressure 29.97 in    
Wind  
Wind Speed 13 mph (North)    
Max Wind Speed 28 mph    
Max Gust Speed 36 mph    
Visibility 5 miles    
Events Fog , Rain    
T = Trace of Precipitation, MM = Missing Value Source: NWS Daily Summary

Daily Weather History Graph

Daily Weather History Graph

Search for Another Location

Airport or City:

Trip Planner

Search our weather history database for the weather conditions in past years. The results will help you decide how hot, cold, wet, or windy it might be!

Date:

Astronomy

Nov. 08, 2011 Rise Set
Actual Time 7:14 AM CST 5:46 PM CST
Civil Twilight 6:48 AM CST 6:12 PM CST
Nautical Twilight 6:17 AM CST 6:42 PM CST
Astronomical Twilight 5:47 AM CST 7:12 PM CST
Moon 4:25 PM CST (11/8) 5:17 AM CST (11/8)
Length of Visible Light 11h 24m
Length of Day
10h 31m
Waxing Gibbous, 96% of the Moon is Illuminated
Nov 8
Waxing Gibbous
Nov 10
Full
Nov 18
Last Quarter
Nov 25
New
Dec 2
First Quarter

Hourly Weather History & Observations

Time (CST) Temp. Windchill Dew Point Humidity Pressure Visibility Wind Dir Wind Speed Gust Speed Precip Events Conditions
12:19 AM 44.6 °F 38.8 °F 44.6 °F 100% 29.92 in 1.0 mi NE 11.5 mph - 0.00 in   Mist
12:33 AM 44.6 °F 37.8 °F 44.6 °F 100% 29.92 in 1.5 mi NE 15.0 mph - 0.00 in Rain Light Rain
12:53 AM 45.0 °F 38.2 °F 44.1 °F 97% 29.88 in 2.5 mi NE 15.0 mph - 0.01 in Rain Light Rain
1:00 AM 44.6 °F 39.7 °F 44.6 °F 100% 29.93 in 4.0 mi North 9.2 mph - 0.00 in   Overcast
1:07 AM 44.6 °F 38.4 °F 44.6 °F 100% 29.93 in 1.8 mi NNE 12.7 mph - 0.00 in   Overcast
1:12 AM 44.6 °F 38.4 °F 44.6 °F 100% 29.93 in 0.8 mi NNE 12.7 mph - 0.00 in   Overcast
1:21 AM 44.6 °F 39.2 °F 44.6 °F 100% 29.93 in 0.5 mi NNE 10.4 mph - 0.00 in Fog , Rain Light Rain
1:29 AM 44.6 °F 40.7 °F 44.6 °F 100% 29.93 in 1.0 mi NNE 6.9 mph - 0.00 in Rain Light Rain
1:34 AM 44.6 °F 39.2 °F 44.6 °F 100% 29.94 in 2.0 mi North 10.4 mph - 0.00 in Rain Light Rain
1:41 AM 44.6 °F 38.8 °F 42.8 °F 93% 29.94 in 1.0 mi North 11.5 mph - 0.00 in Rain Light Rain
1:50 AM 44.6 °F 40.7 °F 44.6 °F 100% 29.95 in 1.5 mi North 6.9 mph - 0.01 in Rain Light Rain
1:53 AM 44.1 °F 39.5 °F 44.1 °F 100% 29.89 in 1.5 mi NNE 8.1 mph - 0.01 in Rain Light Rain
2:06 AM 44.6 °F 41.4 °F 44.6 °F 100% 29.94 in 2.0 mi North 5.8 mph - 0.00 in Rain Light Rain
2:13 AM 44.6 °F 41.4 °F 44.6 °F 100% 29.94 in 1.5 mi North 5.8 mph - 0.00 in   Overcast
2:21 AM 44.6 °F 40.7 °F 42.8 °F 93% 29.93 in 3.0 mi NNE 6.9 mph - 0.00 in   Overcast
2:28 AM 44.6 °F 40.7 °F 42.8 °F 93% 29.92 in 1.8 mi NNE 6.9 mph - 0.00 in   Overcast
2:37 AM 44.6 °F 40.2 °F 42.8 °F 93% 29.92 in 1.0 mi NNE 8.1 mph - N/A   Mist
2:51 AM 44.6 °F 41.4 °F 42.8 °F 93% 29.91 in 0.8 mi NE 5.8 mph - 0.00 in   Mist
2:53 AM 44.1 °F 39.5 °F 43.0 °F 96% 29.86 in 0.8 mi NE 8.1 mph - 0.00 in   Mist
3:05 AM 44.6 °F 40.2 °F 42.8 °F 93% 29.90 in 0.8 mi NNE 8.1 mph - N/A   Mist
3:17 AM 42.8 °F 38.0 °F 42.8 °F 100% 29.90 in 0.5 mi NE 8.1 mph - N/A Fog Fog
3:32 AM 44.6 °F 38.1 °F 42.8 °F 93% 29.87 in 0.5 mi ENE 13.8 mph - N/A Fog Fog
3:53 AM 43.0 °F 36.0 °F 43.0 °F 100% 29.83 in 0.5 mi ENE 13.8 mph - N/A Fog Fog
4:12 AM 42.8 °F 36.6 °F 42.8 °F 100% 29.87 in 0.2 mi ENE 11.5 mph - N/A Fog Fog
4:22 AM 42.8 °F 37.0 °F 42.8 °F 100% 29.88 in 0.2 mi ENE 10.4 mph - N/A Fog Fog
4:31 AM 42.8 °F 38.0 °F 42.8 °F 100% 29.88 in 0.2 mi ENE 8.1 mph - N/A Fog Fog
4:53 AM 42.8 °F 37.0 °F 42.8 °F 100% 29.88 in 0.2 mi NE 10.4 mph - N/A Fog Fog
5:19 AM 42.8 °F 38.6 °F 42.8 °F 100% 29.88 in 0.1 mi NNE 6.9 mph - N/A Fog Fog
5:53 AM 42.1 °F 38.4 °F 42.1 °F 100% 29.88 in 0.1 mi West 5.8 mph - N/A Fog Fog
6:49 AM 42.8 °F 39.3 °F 42.8 °F 100% 29.91 in 0.5 mi NW 5.8 mph - N/A Fog Fog
6:53 AM 43.0 °F 40.3 °F 43.0 °F 100% 29.89 in 0.8 mi WNW 4.6 mph - N/A   Mist
7:16 AM 42.8 °F 39.3 °F 42.8 °F 100% 29.91 in 1.2 mi NNW 5.8 mph - N/A   Overcast
7:53 AM 43.0 °F 40.3 °F 42.1 °F 97% 29.89 in 1.2 mi NNE 4.6 mph - N/A   Overcast
8:23 AM 42.8 °F - 42.8 °F 100% 29.93 in 2.0 mi Calm Calm - N/A   Overcast
8:38 AM 42.8 °F 41.1 °F 42.8 °F 100% 29.94 in 2.0 mi WNW 3.5 mph - N/A   Overcast
8:53 AM 43.0 °F 39.5 °F 43.0 °F 100% 29.91 in 2.0 mi NNW 5.8 mph - N/A   Overcast
9:25 AM 42.8 °F 38.6 °F 42.8 °F 100% 29.94 in 4.0 mi North 6.9 mph - N/A   Overcast
9:48 AM 44.6 °F 42.2 °F 42.8 °F 93% 29.95 in 5.0 mi NNW 4.6 mph - N/A   Overcast
9:53 AM 44.1 °F 41.5 °F 43.0 °F 96% 29.92 in 5.0 mi NNE 4.6 mph - N/A   Overcast
10:11 AM 44.6 °F 40.2 °F 42.8 °F 93% 29.96 in 10.0 mi NW 8.1 mph - N/A   Mostly Cloudy
10:27 AM 46.4 °F 42.9 °F 42.8 °F 87% 29.95 in 10.0 mi NNW 6.9 mph - N/A   Mostly Cloudy
10:36 AM 46.4 °F 41.9 °F 42.8 °F 87% 29.95 in 10.0 mi North 9.2 mph - N/A   Mostly Cloudy
10:53 AM 46.9 °F - 42.1 °F 83% 29.93 in 10.0 mi NNW 8.1 mph - N/A   Scattered Clouds
11:22 AM 48.2 °F - 41.0 °F 76% 29.96 in 10.0 mi NNW 9.2 mph - N/A   Mostly Cloudy
11:53 AM 46.0 °F 39.3 °F 41.0 °F 83% 29.95 in 10.0 mi NNW 16.1 mph - N/A   Overcast
12:14 PM 48.2 °F - 42.8 °F 82% 29.97 in 10.0 mi North 16.1 mph - N/A   Mostly Cloudy
12:25 PM 46.4 °F 39.5 °F 41.0 °F 81% 29.96 in 10.0 mi North 17.3 mph - N/A   Mostly Cloudy
12:30 PM 46.4 °F 39.8 °F 39.2 °F 76% 29.97 in 10.0 mi North 16.1 mph - N/A   Scattered Clouds
12:39 PM 46.4 °F 40.1 °F 39.2 °F 76% 29.97 in 10.0 mi North 15.0 mph 24.2 mph N/A   Mostly Cloudy
12:53 PM 44.1 °F 36.2 °F 39.9 °F 85% 29.95 in 10.0 mi North 18.4 mph - N/A   Overcast
12:55 PM 44.6 °F 37.2 °F 39.2 °F 81% 29.98 in 10.0 mi North 17.3 mph - N/A   Overcast
1:28 PM 44.6 °F 36.9 °F 37.4 °F 76% 29.99 in 10.0 mi North 18.4 mph - N/A   Overcast
1:53 PM 44.1 °F 36.5 °F 37.9 °F 79% 29.98 in 10.0 mi NNW 17.3 mph - N/A   Mostly Cloudy
2:37 PM 44.6 °F 36.9 °F 35.6 °F 71% 30.02 in 10.0 mi NNW 18.4 mph 24.2 mph N/A   Overcast
2:53 PM 42.1 °F 33.3 °F 35.1 °F 76% 30.01 in 10.0 mi NW 19.6 mph 25.3 mph N/A   Overcast
3:53 PM 41.0 °F 32.2 °F 33.1 °F 73% 30.06 in 10.0 mi NNW 18.4 mph 26.5 mph N/A   Overcast
4:53 PM 39.2 °F 29.3 °F 33.8 °F 81% 30.10 in 10.0 mi NNW 20.7 mph 27.6 mph N/A   Overcast
5:53 PM 39.9 °F 30.2 °F 34.0 °F 79% 30.14 in 10.0 mi NNW 20.7 mph 26.5 mph N/A   Overcast
6:34 PM 39.2 °F 29.8 °F 33.8 °F 81% 30.16 in 10.0 mi NNW 18.4 mph 26.5 mph N/A   Scattered Clouds
6:53 PM 39.0 °F 30.6 °F 34.0 °F 82% 30.17 in 10.0 mi NNW 15.0 mph 24.2 mph N/A   Scattered Clouds
7:10 PM 39.2 °F 29.8 °F 35.6 °F 87% 30.18 in 10.0 mi NNW 18.4 mph 25.3 mph N/A   Mostly Cloudy
7:53 PM 39.9 °F 30.5 °F 33.1 °F 77% 30.20 in 10.0 mi NNW 19.6 mph 31.1 mph N/A   Mostly Cloudy
8:53 PM 39.9 °F 30.8 °F 32.0 °F 73% 30.22 in 10.0 mi NNW 18.4 mph 26.5 mph N/A   Overcast
9:41 PM 39.2 °F 32.0 °F 30.2 °F 70% 30.26 in 10.0 mi NNW 11.5 mph 20.7 mph N/A   Scattered Clouds
9:53 PM 37.9 °F 29.6 °F 30.9 °F 76% 30.27 in 10.0 mi NNW 13.8 mph - N/A   Partly Cloudy
10:53 PM 37.4 °F 29.8 °F 32.0 °F 81% 30.28 in 10.0 mi NNW 11.5 mph - N/A   Partly Cloudy
11:53 PM 34.0 °F 26.0 °F 32.0 °F 92% 30.29 in 10.0 mi NNW 10.4 mph - N/A   Partly Cloudy